Weather History for KOZR - July, 2013

Change the Weather History Date:

Saturday, July 6, 2013

  Actual Average Record
Temperature  
Mean Temperature 78 °F -  
Max Temperature 83 °F 87 °F - (-1)
Min Temperature 71 °F 69 °F - (-1)
Cooling Degree Days 12    
Growing Degree Days 28 (Base 50)    
Moisture  
Dew Point 73 °F    
Average Humidity 93    
Maximum Humidity 100    
Minimum Humidity 70    
Precipitation  
Precipitation 0.40 in - - ()
Sea Level Pressure  
Sea Level Pressure 30.08 in    
Wind  
Wind Speed 6 mph (SE)    
Max Wind Speed 16 mph    
Max Gust Speed 24 mph    
Visibility 9 miles    
Events Rain    
Averages and records for this station are not official NWS values.
T = Trace of Precipitation, MM = Missing Value Source: NWS Daily Summary

Daily Weather History Graph

Daily Weather History Graph

Search for Another Location

Airport or City:

Trip Planner

Search our weather history database for the weather conditions in past years. The results will help you decide how hot, cold, wet, or windy it might be!

Date:

Astronomy

Jul. 06, 2013 Rise Set
Actual Time 5:44 AM CDT 7:50 PM CDT
Civil Twilight 5:16 AM CDT 8:18 PM CDT
Nautical Twilight 4:43 AM CDT 8:52 PM CDT
Astronomical Twilight 4:06 AM CDT 9:28 PM CDT
Moon 4:26 AM CDT (7/6) 6:35 PM CDT (7/6)
Length of Visible Light 15h 01m
Length of Day
14h 06m
Waning Crescent, 2% of the Moon is Illuminated
Jul 6
Waning Crescent
Jul 8
New
Jul 15
First Quarter
Jul 22
Full
Jul 29
Last Quarter

Hourly Weather History & Observations

Time (CDT) Temp. Heat Index Dew Point Humidity Pressure Visibility Wind Dir Wind Speed Gust Speed Precip Events Conditions
12:03 AM 71.6 °F - 71.6 °F 100% 30.08 in 10.0 mi ESE 6.9 mph - N/A   Overcast
12:23 AM 71.6 °F - 71.6 °F 100% 30.07 in 10.0 mi ESE 5.8 mph - N/A   Overcast
12:38 AM 71.6 °F - 71.6 °F 100% 30.07 in 10.0 mi ESE 5.8 mph - N/A   Scattered Clouds
12:43 AM 71.6 °F - 71.6 °F 100% 30.06 in 10.0 mi ESE 5.8 mph - N/A   Mostly Cloudy
12:53 AM 71.6 °F - 71.6 °F 100% 30.06 in 10.0 mi ESE 5.8 mph - N/A   Mostly Cloudy
12:58 AM 71.8 °F - 71.2 °F 98% 30.06 in 10.0 mi ESE 4.6 mph - N/A   Mostly Cloudy
1:00 AM 71.6 °F - 71.6 °F 100% 30.06 in 10.0 mi ESE 4.6 mph - N/A   Mostly Cloudy
1:25 AM 71.6 °F - 71.6 °F 100% 30.06 in 10.0 mi ESE 6.9 mph - N/A   Mostly Cloudy
1:28 AM 71.6 °F - 71.6 °F 100% 30.06 in 10.0 mi ESE 5.8 mph - N/A   Mostly Cloudy
1:58 AM 72.1 °F - 71.6 °F 98% 30.06 in 10.0 mi ESE 5.8 mph - N/A   Overcast
2:03 AM 71.6 °F - 71.6 °F 100% 30.06 in 10.0 mi ESE 5.8 mph - N/A   Overcast
2:18 AM 71.6 °F - 71.6 °F 100% 30.06 in 10.0 mi ESE 5.8 mph - N/A   Overcast
2:38 AM 71.6 °F - 71.6 °F 100% 30.06 in 10.0 mi ESE 5.8 mph - N/A   Overcast
2:58 AM 72.5 °F - 72.0 °F 98% 30.06 in 10.0 mi ESE 5.8 mph - N/A   Overcast
3:28 AM 73.4 °F - 71.6 °F 94% 30.06 in 10.0 mi East 5.8 mph - N/A   Overcast
3:53 AM 73.4 °F - 71.6 °F 94% 30.05 in 10.0 mi East 4.6 mph - N/A   Overcast
3:58 AM 72.7 °F - 72.1 °F 98% 30.05 in 10.0 mi East 5.8 mph - N/A   Overcast
4:06 AM 73.4 °F - 71.6 °F 94% 30.06 in 10.0 mi East 4.6 mph - N/A   Overcast
4:51 AM 73.4 °F - 71.6 °F 94% 30.07 in 10.0 mi East 5.8 mph - N/A   Overcast
4:58 AM 72.9 °F - 72.3 °F 98% 30.07 in 10.0 mi East 8.1 mph - N/A   Overcast
5:28 AM 73.4 °F - 71.6 °F 94% 30.08 in 10.0 mi East 5.8 mph - N/A   Overcast
5:33 AM 73.4 °F - 71.6 °F 94% 30.08 in 10.0 mi East 4.6 mph - N/A   Overcast
5:48 AM 73.4 °F - 71.6 °F 94% 30.08 in 10.0 mi East 5.8 mph - N/A   Overcast
5:53 AM 73.4 °F - 71.6 °F 94% 30.08 in 10.0 mi East 5.8 mph - N/A   Overcast
5:58 AM 72.7 °F - 72.1 °F 98% 30.08 in 10.0 mi East 5.8 mph - N/A   Overcast
6:18 AM 73.4 °F - 71.6 °F 94% 30.08 in 10.0 mi East 5.8 mph - N/A   Overcast
6:58 AM 73.2 °F - 72.5 °F 98% 30.09 in 10.0 mi East 5.8 mph - N/A   Overcast
7:23 AM 73.4 °F - 73.4 °F 100% 30.09 in 10.0 mi East 5.8 mph - N/A   Overcast
7:58 AM 74.5 °F - 73.0 °F 95% 30.09 in 10.0 mi East 5.8 mph - N/A   Overcast
8:33 AM 75.2 °F - 73.4 °F 94% 30.09 in 10.0 mi East 6.9 mph - N/A   Overcast
8:58 AM 77.0 °F - 73.0 °F 88% 30.09 in 10.0 mi East 10.4 mph - N/A   Overcast
9:28 AM 77.0 °F - 73.4 °F 89% 30.09 in 10.0 mi ESE 6.9 mph - N/A   Mostly Cloudy
9:58 AM 79.2 °F - 73.0 °F 81% 30.10 in 10.0 mi SE 5.8 mph - N/A   Overcast
10:03 AM 78.8 °F - 73.4 °F 83% 30.10 in 10.0 mi SE 8.1 mph - N/A   Overcast
10:08 AM 78.8 °F - 73.4 °F 83% 30.10 in 10.0 mi SSE 5.8 mph - N/A   Overcast
10:53 AM 82.4 °F 88.2 °F 73.4 °F 74% 30.09 in 10.0 mi SE 9.2 mph - N/A   Mostly Cloudy
10:58 AM 81.9 °F 87.5 °F 73.6 °F 76% 30.09 in 10.0 mi SE 6.9 mph - N/A   Mostly Cloudy
11:13 AM 82.4 °F 88.2 °F 73.4 °F 74% 30.08 in 10.0 mi SE 11.5 mph - N/A   Mostly Cloudy
11:18 AM 82.4 °F 88.2 °F 73.4 °F 74% 30.08 in 10.0 mi East 11.5 mph - N/A   Mostly Cloudy
11:28 AM 84.2 °F 90.9 °F 73.4 °F 70% 30.09 in 10.0 mi SE 8.1 mph - N/A   Mostly Cloudy
11:58 AM 81.1 °F 86.2 °F 73.2 °F 77% 30.08 in 10.0 mi SSE 5.8 mph - N/A   Scattered Clouds
12:03 PM 80.6 °F 85.4 °F 73.4 °F 79% 30.08 in 9.0 mi SE 9.2 mph - N/A Rain Light Rain
12:14 PM 80.6 °F 85.4 °F 73.4 °F 79% 30.08 in 10.0 mi SE 5.8 mph - N/A   Scattered Clouds
12:39 PM 80.6 °F 85.4 °F 73.4 °F 79% 30.08 in 10.0 mi South 4.6 mph - N/A   Mostly Cloudy
12:44 PM 80.6 °F 85.4 °F 73.4 °F 79% 30.07 in 10.0 mi SSE 8.1 mph - N/A   Mostly Cloudy
12:54 PM 82.4 °F 88.2 °F 73.4 °F 74% 30.07 in 10.0 mi SE 10.4 mph - N/A   Mostly Cloudy
12:58 PM 81.9 °F 87.5 °F 73.8 °F 76% 30.08 in 10.0 mi SE 9.2 mph - 0.00 in   Mostly Cloudy
1:14 PM 78.8 °F - 71.6 °F 78% 30.08 in 10.0 mi SE 16.1 mph 24.2 mph N/A Rain Light Rain
1:29 PM 75.2 °F - 73.4 °F 94% 30.09 in 6.0 mi SSE 11.5 mph - N/A Rain Light Rain
1:34 PM 75.2 °F - 73.4 °F 94% 30.09 in 5.0 mi SSE 8.1 mph - N/A Rain Rain
1:39 PM 75.2 °F - 73.4 °F 94% 30.08 in 3.0 mi SSE 5.8 mph - N/A Rain Rain
1:43 PM 75.2 °F - 73.4 °F 94% 30.08 in 3.0 mi South 9.2 mph - N/A Rain Rain
1:48 PM 75.2 °F - 73.4 °F 94% 30.08 in 7.0 mi South 6.9 mph - N/A Rain Light Rain
1:50 PM 75.2 °F - 73.4 °F 94% 30.09 in 10.0 mi South 5.8 mph - N/A   Overcast
1:53 PM 75.2 °F - 73.4 °F 94% 30.08 in 10.0 mi South 6.9 mph - N/A Rain Light Rain
1:58 PM 74.5 °F - 73.2 °F 96% 30.09 in 10.0 mi South 6.9 mph - 0.06 in Rain Light Rain
2:02 PM 75.2 °F - 73.4 °F 94% 30.08 in 10.0 mi South 6.9 mph - N/A   Overcast
2:05 PM 75.2 °F - 73.4 °F 94% 30.08 in 10.0 mi South 8.1 mph - N/A   Overcast
2:10 PM 75.2 °F - 73.4 °F 94% 30.09 in 10.0 mi South 5.8 mph - N/A   Overcast
2:30 PM 75.2 °F - 73.4 °F 94% 30.07 in 10.0 mi SSE 8.1 mph - N/A   Mostly Cloudy
2:32 PM 75.2 °F - 73.4 °F 94% 30.07 in 10.0 mi SE 5.8 mph - N/A Rain Light Rain
2:58 PM 76.1 °F - 74.1 °F 94% 30.07 in 7.0 mi ESE 4.6 mph - 0.02 in Rain Rain
3:08 PM 75.2 °F - 75.2 °F 100% 30.07 in 4.0 mi ESE 4.6 mph - N/A Rain Rain
3:42 PM 77.0 °F - 75.2 °F 94% 30.07 in 10.0 mi ESE 8.1 mph - N/A   Mostly Cloudy
3:58 PM 76.6 °F - 74.8 °F 94% 30.07 in 10.0 mi SE 6.9 mph - 0.12 in   Mostly Cloudy
4:03 PM 77.0 °F - 75.2 °F 94% 30.07 in 10.0 mi SSE 6.9 mph - N/A   Mostly Cloudy
4:16 PM 77.0 °F - 75.2 °F 94% 30.08 in 10.0 mi SE 5.8 mph - N/A Rain Light Rain
4:36 PM 75.2 °F - 75.2 °F 100% 30.08 in 6.0 mi SE 8.1 mph - N/A Rain Light Rain
4:58 PM 75.2 °F - 73.9 °F 96% 30.06 in 4.0 mi SE 5.8 mph - 0.09 in Rain Rain
5:09 PM 75.2 °F - 73.4 °F 94% 30.05 in 4.0 mi ESE 8.1 mph - N/A Rain Light Rain
5:49 PM 73.4 °F - 73.4 °F 100% 30.06 in 9.0 mi SE 8.1 mph - N/A Rain Light Rain
5:58 PM 74.1 °F - 73.6 °F 98% 30.06 in 10.0 mi ESE 6.9 mph - 0.11 in   Light Drizzle
6:05 PM 73.4 °F - 73.4 °F 100% 30.06 in 10.0 mi ESE 8.1 mph - N/A   Mostly Cloudy
6:07 PM 73.4 °F - 73.4 °F 100% 30.05 in 10.0 mi SE 6.9 mph - N/A   Mostly Cloudy
6:28 PM 73.4 °F - 73.4 °F 100% 30.05 in 10.0 mi SE 6.9 mph - N/A   Light Drizzle
6:33 PM 73.4 °F - 73.4 °F 100% 30.05 in 10.0 mi SSE 6.9 mph - N/A Rain Light Rain
6:42 PM 73.4 °F - 73.4 °F 100% 30.05 in 10.0 mi SSE 6.9 mph - N/A   Partly Cloudy
6:58 PM 73.4 °F - 72.1 °F 96% 30.06 in 10.0 mi SSE 4.6 mph - 0.00 in   Clear
7:58 PM 73.0 °F - 72.3 °F 98% 30.07 in 10.0 mi SE 2.3 mph - N/A   Clear
8:13 PM 73.4 °F - 71.6 °F 94% 30.07 in 10.0 mi SSE 3.5 mph - N/A   Scattered Clouds
8:58 PM 72.5 °F - 72.1 °F 99% 30.08 in 10.0 mi South 2.3 mph - N/A   Partly Cloudy
9:58 PM 72.0 °F - 71.6 °F 99% 30.10 in 10.0 mi Calm Calm - N/A   Clear
9:59 PM 71.6 °F - 71.6 °F 100% 30.10 in 10.0 mi Calm Calm - N/A   Partly Cloudy
10:09 PM 71.6 °F - 71.6 °F 100% 30.10 in 10.0 mi ESE 2.3 mph - N/A   Mostly Cloudy
10:14 PM 71.6 °F - 71.6 °F 100% 30.10 in 10.0 mi ESE 2.3 mph - N/A   Mostly Cloudy
10:27 PM 71.6 °F - 71.6 °F 100% 30.10 in 10.0 mi East 2.3 mph - N/A   Overcast
10:58 PM 71.8 °F - 71.4 °F 99% 30.10 in 10.0 mi Calm Calm - N/A   Mostly Cloudy
11:08 PM 71.6 °F - 71.6 °F 100% 30.10 in 10.0 mi Calm Calm - N/A   Scattered Clouds
11:23 PM 71.6 °F - 71.6 °F 100% 30.10 in 1.2 mi NE 1.2 mph - N/A   Partly Cloudy
11:28 PM 71.6 °F - 69.8 °F 94% 30.10 in 1.0 mi Calm Calm - N/A   Clear
11:33 PM 71.6 °F - 69.8 °F 94% 30.10 in 1.2 mi Calm Calm - N/A   Clear
11:38 PM 71.6 °F - 69.8 °F 94% 30.10 in 1.5 mi Calm Calm - N/A   Clear
11:48 PM 71.6 °F - 69.8 °F 94% 30.10 in 1.2 mi Calm Calm - N/A   Clear
11:53 PM 71.6 °F - 69.8 °F 94% 30.10 in 0.8 mi Calm Calm - N/A   Clear
11:58 PM 71.1 °F - 70.7 °F 99% 30.10 in 0.8 mi Calm Calm - N/A   Clear